Flag for U.S.A. Weather past 2 weeks in Decatur, Illinois, U.S.A.

Now
83 °F

Sunny.


Feels Like: 82 °F
Forecast: 58 / 83 °F
Wind: 9 mph from Southeast

Location: Decatur Airport

Current Time: May 28, 2015 at 2:27:15 PM

Latest Report: May 28, 2015 at 1:54 PM


Visibility: 10 mi

Pressure: 30.13 "Hg

Humidity: 41%

Dew point: 57 °F

Location of DecaturLocation

Historic Weather in Decatur — Graph

°F

Decatur temperature yesterday

Maximum temperature yesterday: 79 °F (at 1:54 PM)
Minimum temperature yesterday: 63 °F (at 11:54 PM)
Average temperature yesterday: 71 °F

Past Weeks' High & Low Weather Summary

 TemperatureHumidityPressure
High83 °F (May 15, 2:54 PM)94% (May 16, 4:54 AM)30.40 "Hg (May 16, 4:54 AM)
Low44 °F (May 21, 2:54 AM)28% (May 22, 2:54 PM)29.84 "Hg (May 26, 9:54 AM)
Average66 °F68%30.09 "Hg
* Reported May 13 12:54 PM — May 28 12:54 PM, Decatur, Weather by CustomWeather, © 2015

Note: Actual official high and low records may vary slightly from our data, if they occured in-between our weather recording intervals... More about our weather records

Advertising

Decatur weather history for previous 24 hours

 ConditionsComfort  
Time TempWeatherWind HumidityBarometerVisibility
12:54 PM
Thu, May 28
82 °FSunny.8 mph40%30.15 "Hg10 mi
11:54 AM80 °FSunny.10 mph42%30.15 "Hg10 mi
10:54 AM78 °FSunny.12 mph46%30.16 "Hg10 mi
9:54 AM76 °FSunny.16 mph45%30.18 "Hg10 mi
8:54 AM73 °FSunny.15 mph55%30.19 "Hg10 mi
7:54 AM69 °FSunny.10 mph66%30.19 "Hg10 mi
6:54 AM62 °FSunny.5 mph83%30.18 "Hg10 mi
5:54 AM57 °FClear.5 mph83%30.18 "Hg10 mi
4:54 AM55 °FClear.6 mph90%30.15 "Hg10 mi
3:54 AM58 °FClear.3 mph84%30.16 "Hg10 mi
2:54 AM58 °FClear.No wind87%30.15 "Hg10 mi
1:54 AM57 °FClear.8 mph93%30.15 "Hg10 mi
12:54 AM61 °FClear.6 mph87%30.15 "Hg10 mi
11:54 PM
Wed, May 27
63 °FLight rain. Clear.No wind84%30.13 "Hg10 mi
10:54 PM64 °FClear.No wind81%30.12 "Hg10 mi
9:54 PM68 °FClear.No wind70%30.10 "Hg10 mi
8:54 PM68 °FSunny.No wind68%30.09 "Hg10 mi
7:54 PM73 °FSunny.5 mph57%30.07 "Hg10 mi
6:54 PM76 °FSunny.10 mph52%30.06 "Hg10 mi
5:54 PM78 °FPassing clouds.10 mph50%30.05 "Hg10 mi
4:54 PM78 °FScattered clouds.15 mph50%30.04 "Hg10 mi
3:54 PM79 °FScattered clouds.13 mph50%30.04 "Hg10 mi
2:54 PM79 °FPassing clouds.16 mph50%30.04 "Hg10 mi
Weather by CustomWeather, © 2015

See weather overviewHow to use our weather pages